Location: Eschertshofen
(49.3064°N, 11.5756°E)
Time: 17:39:03
(UTC+00:00)

Spot 2 Rocket - Pass Details

Date: 23 June 2021
Orbit: 757 x 772 km, 98.5° (Epoch: 28 July)

Event Time Altitude Azimuth Distance (km) Brightness Sun altitude
Exits shadow 21:56:44 - 219° (SW) 2,869 6.2 -15.2°
Reaches altitude 10° 21:58:51 10° 235° (SW) 2,300 5.8 -15.3°
Maximum altitude 22:01:53 16° 272° (W) 1,931 5.8 -15.4°
Drops below altitude 10° 22:04:57 10° 309° (NW) 2,316 6.8 -15.6°
Sets 22:08:13 0° 331° (NNW) 3,251 8.4 -15.7°
